www.pogodaiklimat.ru

Погода и климат >> Архив погоды >> Сирия >> Даръа


ПОГОДА в Даръа

  • Прогноз погоды в Даръа
  • Монитор погоды в Даръа

АРХИВ ПОГОДЫ в Даръа

Время (UTC), дата Ветер
(напр.,м/с)
 
Видим.   Явления Облачность Т
(С)
Тd
(С)
f
(%)
Тe
(С)
Тes
(С)
Комфортность P
(гПа)
Po
(гПа)
Тmin
(С)
Tmax
(С)
R
(мм)
R24
(мм)
S
(см)
18 17.06 н/о +24.1 +6.5 32 +24 +24 комфорт 1006.0 859.8
21 17.06 н/о +23.2 +7.8 37 +24 +24 комфорт 1005.3 859.8
06 18.06 С 8 50 км 4/4 1000 м
[]
+32.6 +12.3 29 +33 +34 жарко 1004.6 859.8
12 18.06 50 км {ливн. осадки} 5/3 600 м
[Sc]
+33.5 +15.1 33 1003.4 859.8 320
18 18.06 З 50 3200 м 5/0
[]
+18.8 +13.0 69 +13 +13 1007.9 918.4
00 19.06 500 м н/о +22.3 +13.3 57 +25 +25 комфорт 1007.2 859.8
06 19.06 Ю 4 50 км 4/3 1000 м
[Sc Ac trans Ci fib]
+27.8 +13.9 42 +30 +34 жарко 1005.6 859.8 50
12 19.06 З 4 20 км 10/3 1000 м
[Frnb Ci]
+31.8 +12.0 30 +32 +38 жарко 1004.0 944.7
18 19.06 С 2 20 км {ливн. осадки} 10/3 1500 м
[Cb cap Ac und]
+25.4 +8.4 34 +26 +26 жарко 1006.4 958.8 0.0
21 19.06 25 км н/о +22.2 +14.2 60 +25 +25 комфорт 1006.4 859.8
03 20.06 штиль 00 3200 м 4/4 <50 м
[]
+27.4 +6.5 27 +27 +27 жарко 1004.1 944.0
15 20.06 Ю 6/ 8000 м 6/4 800 м
[Cu med, cong Ac trans]
+33.7 +6.5 18 +32 +32 жарко 1000.0 941.3
21 20.06 Ю 4 н/о ясно +21.2 +14.8 67 +24 +24 комфорт 1005.6 859.8
03 21.06 штиль 00 4100 м 4/4 900 м
[]
+25.4 +12.6 45
09 21.06 штиль 0 20 км 3/3 1000 м
[]
+30.9 +17.3 44 +35 +55 опасность
солнечного
удара
1004.2 859.8
21 21.06 н/о
03 22.06 штиль 0 20 км 3/1 <50 м
[Cu hum Ci fib]
+19.2 +5.9 42 +20 +20 794.9
09 22.06 50 км {ливн. осадки} н/о +35.4 +14.5 29 +37 +45 очень
душно
1005.3 859.8 270
15 22.06 СЗ 8 4000 м ливневой дождь 10/10 900 м
[Cb cap]
+8.5 +8.2 98 +4 +4 668.5 +18.1
18 22.06 ЮВ 4 н/о ясно +26.8 +15.5 50 1003.9
21 22.06 штиль 00 н/о +21.0 +14.7 67 +24 +24 комфорт 1009.7 859.8
00 23.06 В 4 20 км 8/6 2000 м
[Sc]
+24.8 +17.3 63 +29 +29 душно 1010.3 859.8 90
03 23.06 штиль 0 50 км 4/0 <50 м
[Ci ing]
+25.3 +14.8 52 +28 +28 жарко 1005.5 918.9 90
06 23.06 В 1 50 км 8/0 <50 м
[Ac trans]
+35.0 +14.3 29 1005.6 110 95
12 23.06 В 4 20 км мгла 10/0 2000 м
[Cb cap Ci fib]
+29.3 +20.4 59 +36 +44 очень
душно
1007.8 859.8
15 23.06 С 3 20 км 10/3
[Cb cap Ac trans Ci sp]
+29.7 +11.3 32 +30 +31 жарко 1008.4 961.4 90
18 23.06 ЮВ 1 н/о мгла 10/1 1000 м
[Sc diur, vesp Ci fib]
+23.1 +15.5 62 +27 +27 душно 1009.7 859.8
03 24.06 СЗ 4 20 км ясно +27.4 +12.4 39 +29 +29 жарко 1004.8 944.6
12 24.06 10 км в посл. час ливневой снег {морось} н/о +33.2 +7.8 21 +32 +38 жарко 1008.0 859.8
15 24.06 ЮВ 1 50 км 5/5 <50 м
[Sc]
+31.5 +4.8 19 +29 +31 жарко 1000.8 941.7

 

Местоположение метеостанции Даръа (Сирия): широта 32.60 долгота 36.10 высота над уровнем моря 543 м.

В архиве по умолчанию представлена погода в Даръа за последнюю неделю. Архивные данные за месяц целиком и за предыдущие месяцы, начиная с января 2011 года, Вы можете получить, выбрав интересующий диапазон дат из раскрывающегося списка и нажав кнопку "Ввод!".


*Определитесь, кто Вы:
робот инопланетянин человек

Внимание! Время в таблицах - всемирное. Для получения местного времени необходимо прибавить поправку, которая равна 2 ч.

Смотрите также архив погоды в соседних городах и на ближайших метеорологических станциях:

Погода в Ирбиде (Иордания) (24 км)
Погода в Эль-Мафраке (Иордания) (29 км)
Погода в Цфате (Израиль) (70 км)
Погода в Аммане (Иордания) (70 км)
Погода в Капернауме (Израиль) (77 км)
Погода в Афеке (Израиль) (97 км)
Погода в Аэропорту Королева Алия (Иордания) (99 км)
Погода в Дамаске (Сирия) (99 км)
Погода в Аэропорту Принц Хассан (Иордания) (106 км)
Погода в Рош-ха-Никра (Израиль) (107 км)

Пояснения к столбцам:

Ветер - указаны скорость ветра в м/с - средняя за 10 мин, порывы в срок и между сроками (в фигурных скобках) и направление, откуда дует ветер: С - северный, СВ - северо-восточный, В - восточный, ЮВ - юго-восточный, Ю - южный, ЮЗ - юго-западный, З - западный, СЗ - северо-западный.
Видимость - горизонтальная дальность видимости в метрах или километрах. При видимости от 1 до 10 км при отсутствии осадков обычно наблюдается дымка, при ухудшении видимости до 1 км и менее - туман. В сухую погоду видимость может ухудшаться дымом, пылью или мглою.
Явления - указаны атмосферные явления, наблюдавшиеся в срок или в последний час перед сроком; фигурными скобками обозначены явления, наблюдавшиеся между сроками (за 1-3 часа до срока); квадратными скобками обозначены град или гололедные отложения с указанием их диаметра в мм.
Облачность - указаны через наклонную черту общая и нижняя облачность в баллах и высота нижней границы облаков в метрах; квадратными скобками обозначены формы облаков: Ci - перистые, Cs - перисто-слоистые, Cc - перисто-кучевые, Ac - высококучевые, As - высокослоистые, Sc - слоисто-кучевые, Ns - слоисто-дождевые, Cu - кучевые, Cb - кучево-дождевые. Подробнее классификацию облаков см. в Атласе облаков (PDF).
T - Температура воздуха - температура, измеренная на высоте 2 м над землей.
Td - Температура точки росы - температура, при понижении до которой содержащийся в воздухе водяной пар достигнет насыщения.
f - Относительная влажность воздуха - влажноcть воздуха, измеренная на высоте 2 м над землей.
Te - Эффективная температура - температура, которую ощущает одетый по сезону человек в тени. Характеристика душности погоды. При расчете учитывается влияние влажности воздуха и скорости ветра на теплоощущения человека.
Tes - Эффективная температура на солнце - температура, которую ощущает человек, с поправкой на солнечный нагрев. Характеристика знойности погоды. Зависит от высоты солнца над горизонтом, облачности и скорости ветра. Ночью, в пасмурную погоду, а также при ветре 12 м/с и более поправка равна нулю.
P - Атмосферное давление - приведенное к уровню моря атмосферное давление.
Po - Атмосферное давление - измеренное на уровне метеостанции атмосферное давление.
Tmin - Минимальная температура - минимум температуры воздуха на высоте 2 м над землей.
Tmax - Максимальная температура - максимум температуры воздуха на высоте 2 м над землей.
R - Количество осадков - Количество выпавших осадков за период времени, мм. При наведении курсора мыши на число - период времени, за который выпало указанное количество осадков.
R24 - Количество осадков - Количество выпавших осадков за 24 часа, мм.
S - Снежный покров - Высота снежного покрова, см. При наведении курсора мыши на число - состояние снежного покрова и степень покрытия местности в баллах.